Wind_Speed
32 27 33 39 38 37 34 32 31 25 21 21 22 22 24 25 22 24 27 24 27 27 28 29 25 24 22 15 11 12 17 19 18 18 17 16 17 18 19 19 19 19 18 16 16 18 18 19 16 12 12 13 14 14 11 10 10 8 9 10 10 9 8 10 8 8 9 7 8 10 9 9 8 8 9 10 9 7 4 3 2 2 2 3 3 2
31 32 39 40 34 31 31 29 28 28 25 23 24 23 23 27 24 22 26 25 28 26 26 28 25 23 21 15 12 14 15 17 17 17 18 18 18 19 20 19 17 17 18 18 19 20 19 18 15 11 13 17 18 16 13 12 10 9 11 11 10 9 8 10 8 6 7 7 9 10 10 11 11 11 10 9 7 4 3 2 2 3 3 3 4 4
34 39 39 34 30 28 29 29 27 28 30 26 23 24 23 25 25 23 25 25 28 24 23 24 25 24 21 17 16 15 14 16 17 17 18 19 19 21 21 20 18 18 20 21 20 19 19 17 15 14 15 18 21 18 14 11 10 10 12 11 9 8 8 9 8 7 8 8 10 9 9 10 10 9 6 5 4 3 3 4 4 4 3 5 6 6
38 39 33 29 29 29 29 30 29 28 31 29 24 24 24 24 26 25 24 25 24 20 18 21 26 22 16 14 14 12 12 15 16 19 20 19 20 21 21 21 20 21 21 22 22 20 19 16 14 14 13 14 17 18 15 12 11 12 12 11 9 9 10 10 10 9 9 9 10 10 9 9 7 5 3 3 4 4 3 3 3 5 6 8 9 8
35 31 27 28 29 30 30 29 31 30 31 31 26 24 24 25 28 25 22 23 20 19 19 20 22 20 17 14 14 14 15 17 17 21 22 21 23 22 21 22 21 21 22 22 23 20 17 14 11 12 13 14 15 18 19 14 12 13 13 11 10 11 13 13 12 11 9 9 10 11 11 11 10 9 7 5 4 4 4 4 5 7 8 9 9 9
30 25 26 29 29 32 31 29 32 32 29 30 28 26 22 23 28 26 21 22 20 20 23 24 19 16 19 16 14 16 18 20 20 23 24 23 24 23 23 24 22 23 23 21 20 17 14 12 10 11 13 13 14 16 18 15 13 14 13 12 12 13 14 13 11 11 12 12 12 11 11 13 13 10 7 5 4 4 5 6 7 8 9 9 9 10
27 25 28 31 31 32 32 29 31 31 30 29 27 28 23 19 27 28 22 23 21 20 22 28 21 11 18 18 16 17 18 21 22 22 25 25 25 25 24 22 20 21 21 18 17 14 12 10 9 9 10 10 10 12 14 15 14 13 11 11 12 13 12 11 10 12 14 13 12 12 12 13 12 9 5 5 6 6 7 7 8 8 9 9 9 10
27 27 30 33 32 32 34 32 30 32 32 27 24 29 26 21 27 29 24 23 20 19 20 27 24 13 18 22 20 19 19 22 24 23 24 25 24 25 25 22 18 17 17 15 15 15 13 10 9 9 8 8 9 10 13 13 12 12 11 12 13 12 11 11 11 13 16 14 13 13 13 10 8 6 6 7 7 8 8 9 9 8 9 9 9 10
28 31 32 34 34 32 35 33 28 32 31 24 22 27 26 22 24 25 25 23 18 17 19 26 26 15 15 22 23 23 22 24 27 27 26 25 25 26 25 21 18 18 17 14 14 15 14 11 10 9 8 7 5 6 10 12 10 11 10 11 12 12 11 12 13 15 16 14 11 10 9 6 4 6 7 8 9 10 9 8 8 8 9 9 10 11
26 30 29 32 34 31 32 31 27 30 31 22 19 25 25 20 19 20 22 25 20 15 18 24 28 18 12 21 27 26 26 27 28 26 25 26 27 26 23 20 19 20 19 17 16 16 14 12 12 11 9 7 5 6 11 13 12 11 11 11 12 14 15 15 14 14 14 12 10 9 8 8 7 7 9 9 10 10 8 9 9 9 10 10 11 12
25 27 27 30 33 29 27 28 27 29 31 24 18 22 25 20 20 19 18 24 18 12 18 23 27 21 12 16 29 31 29 29 27 25 26 29 28 26 24 21 21 20 20 19 18 17 16 15 14 12 9 8 7 9 12 14 15 14 15 16 16 16 16 14 13 12 11 11 10 9 8 9 9 9 10 10 10 10 10 10 10 10 11 12 12 13
25 27 28 29 31 28 26 27 26 25 30 29 20 20 22 19 20 15 12 17 10 9 20 23 25 24 15 13 25 31 29 27 26 25 27 30 28 26 26 24 22 20 20 19 19 19 18 18 16 13 11 10 10 11 13 14 15 17 18 18 17 16 15 13 13 12 11 11 10 10 10 10 11 11 11 11 11 12 12 13 13 13 13 14 14 15
28 30 31 28 30 31 28 29 27 24 31 34 27 23 21 14 14 11 10 11 9 12 20 23 22 20 18 18 20 25 26 24 22 23 28 30 26 26 28 26 23 21 21 21 21 21 19 19 18 15 12 12 13 13 14 15 16 18 18 17 16 15 15 14 13 13 12 12 12 12 12 12 12 13 13 13 13 14 14 15 15 15 16 16 16 17
28 29 34 32 31 34 31 30 30 28 34 36 31 28 22 11 7 8 9 9 9 14 20 24 21 16 17 19 18 24 24 20 19 21 27 27 25 28 29 25 23 22 22 23 23 21 20 20 20 16 14 14 15 15 15 17 17 17 17 16 15 14 14 14 13 13 13 13 13 13 14 14 14 15 15 15 16 17 17 18 17 17 18 18 18 19
24 23 34 34 31 36 34 31 30 27 32 33 29 29 25 17 11 7 9 8 8 13 16 19 17 14 15 14 16 24 20 16 18 21 24 21 23 28 27 24 23 23 24 23 22 21 21 22 20 17 16 16 16 16 17 18 18 17 16 15 14 14 14 13 13 13 13 14 15 15 16 16 17 17 18 18 19 20 20 20 20 19 19 20 20 20
24 20 30 30 27 35 35 29 26 25 28 28 27 29 27 24 18 12 12 10 7 10 12 14 11 10 12 10 14 20 16 16 20 23 24 22 24 28 25 24 23 23 24 23 22 22 23 24 21 19 18 17 16 16 17 18 17 17 16 15 15 15 15 15 14 14 15 15 17 17 18 18 18 19 19 19 20 21 21 21 21 21 20 21 21 21
24 20 27 30 27 34 35 28 25 27 27 25 28 32 28 24 20 16 14 8 4 6 9 15 11 7 10 10 15 19 17 18 23 26 26 24 27 28 26 25 23 23 24 23 23 24 25 25 22 20 18 16 15 16 17 17 16 16 16 16 16 16 16 16 16 16 16 17 18 17 17 17 17 18 18 19 20 20 20 21 21 21 21 21 21 21
23 20 27 33 29 32 34 29 27 28 26 25 29 29 24 23 20 17 12 5 5 6 8 17 16 11 11 10 16 19 18 20 25 27 26 25 27 27 26 26 24 22 23 23 24 25 26 26 23 22 19 14 14 17 16 16 17 16 16 16 17 17 16 16 16 16 17 17 17 17 16 17 17 18 18 19 19 19 20 21 21 21 21 21 21 21
23 18 24 32 29 28 32 30 29 29 28 26 26 25 22 20 18 17 12 6 8 6 5 16 20 15 16 16 18 20 21 25 26 27 27 26 26 26 26 26 24 23 23 24 26 27 27 26 24 22 19 14 16 18 18 18 18 17 16 16 17 16 15 15 15 15 15 15 15 15 15 16 16 17 18 18 19 20 20 21 21 21 21 21 21 21
23 16 20 30 27 27 32 31 29 30 29 28 25 26 25 19 17 20 15 10 10 6 5 11 14 14 16 19 22 23 23 25 26 27 28 26 26 26 26 26 24 23 24 25 27 27 28 27 24 22 19 16 18 20 20 19 18 16 16 16 16 15 15 14 13 12 12 13 13 13 14 15 16 16 17 18 19 19 20 20 20 20 21 20 20 20
22 16 19 27 26 27 31 32 30 28 29 29 26 28 29 22 19 20 18 17 15 8 5 6 7 11 15 17 24 27 25 24 25 26 27 25 26 26 25 25 25 24 25 27 28 28 28 28 26 23 21 19 20 22 23 21 20 18 17 16 15 15 15 14 11 11 12 13 13 15 15 16 16 17 18 18 19 19 19 19 19 19 20 20 20 20
20 15 18 24 27 29 31 32 29 24 26 27 22 24 29 26 20 16 14 20 19 11 9 8 6 8 12 16 22 27 26 25 24 25 26 25 25 25 25 26 25 25 26 29 30 29 28 28 26 25 25 23 23 24 25 24 22 20 20 18 15 15 16 14 12 12 13 14 15 16 16 17 17 18 18 19 19 18 18 18 18 18 18 18 19 19
19 18 20 22 27 28 25 28 28 22 23 26 21 19 24 27 25 18 12 15 17 14 15 14 8 6 8 12 18 22 22 23 25 26 25 23 24 26 27 26 26 27 28 29 29 28 26 27 27 27 27 26 25 25 25 24 23 23 23 20 17 16 17 16 15 15 15 16 17 17 17 17 17 18 18 18 18 17 17 17 17 17 18 18 18 18
18 19 20 20 24 25 21 25 30 24 21 26 26 21 20 25 28 22 15 16 16 16 15 11 5 8 15 15 16 18 19 22 26 27 25 24 26 29 30 29 27 28 29 30 29 26 26 28 29 30 30 29 28 26 25 25 25 26 25 21 19 19 19 19 19 18 17 18 19 18 17 17 17 18 18 17 17 16 16 16 16 17 17 17 17 17
19 18 19 17 16 19 19 21 28 29 25 27 29 24 20 23 25 22 20 19 17 18 19 12 4 12 19 18 17 17 19 23 27 26 24 27 28 29 31 30 28 28 30 30 28 28 29 30 31 32 32 30 28 27 27 27 28 28 26 23 21 22 22 22 21 20 19 20 20 19 18 17 17 17 17 16 16 15 15 15 15 15 15 16 16 16
20 18 20 18 12 13 15 16 25 31 28 25 26 26 23 21 22 23 22 18 13 15 21 17 5 16 20 19 18 17 19 24 27 25 25 27 28 29 29 28 28 29 29 28 29 31 31 31 32 34 32 30 28 28 29 30 31 31 28 24 23 25 25 24 22 22 22 22 22 20 18 17 17 16 16 15 14 14 14 14 14 14 14 15 14 14
18 15 18 21 18 17 18 19 23 27 26 23 24 27 27 23 22 23 21 19 15 13 18 18 7 16 20 19 17 18 23 26 26 26 26 26 26 27 27 27 27 29 28 27 28 31 33 34 34 35 33 31 30 30 31 32 34 33 28 24 24 26 26 24 24 24 24 24 23 20 17 17 16 16 15 14 13 13 13 13 13 14 14 14 13 12
15 14 16 19 18 20 21 21 22 23 25 25 22 24 27 26 26 24 20 20 19 14 14 14 10 13 18 21 20 22 25 27 27 27 28 28 27 26 25 26 27 27 27 26 27 30 33 35 36 36 35 33 31 32 33 34 35 33 28 26 26 26 26 26 26 25 25 23 20 18 16 16 16 15 14 13 13 13 13 13 14 14 13 12 10 9
14 14 15 15 17 18 19 19 21 21 22 23 22 23 25 26 28 26 21 21 22 18 14 11 10 12 18 21 22 23 24 25 26 27 29 30 28 25 24 25 26 26 26 26 27 30 33 36 37 37 35 32 31 32 33 34 35 33 31 29 27 27 26 26 24 23 22 19 15 14 15 15 14 14 13 13 12 12 12 12 12 11 10 8 7 6
14 12 13 15 17 14 10 9 14 19 21 23 24 23 22 23 25 26 23 21 21 20 17 11 10 12 17 20 22 22 22 23 25 25 26 28 28 26 25 24 25 26 26 27 29 31 33 35 36 35 33 30 30 30 31 31 32 32 30 28 27 27 26 24 23 21 19 15 13 13 14 14 14 13 12 12 11 11 10 10 9 7 6 5 5 6
15 11 12 16 16 12 8 5 7 15 23 24 23 23 23 22 22 25 26 23 19 19 17 14 10 9 13 18 21 22 22 23 23 22 22 23 24 26 26 26 26 25 25 27 29 31 32 33 32 32 30 29 28 28 29 29 29 28 27 25 25 25 24 23 22 20 16 13 12 13 13 13 13 12 11 10 10 9 8 7 6 5 5 7 9 9
17 11 10 16 14 9 10 10 9 11 21 25 23 25 26 23 21 22 24 23 20 18 19 17 13 10 12 18 22 24 23 22 22 20 17 17 19 23 26 28 27 24 23 24 27 30 32 31 30 29 28 27 28 28 29 29 28 26 24 24 24 23 22 21 20 17 14 12 13 13 13 12 11 10 10 9 8 7 6 6 6 7 10 11 9 7
18 11 11 16 13 9 12 11 6 4 12 17 21 24 25 25 23 20 20 21 20 18 18 17 14 11 12 17 24 26 23 20 20 18 15 12 14 18 22 25 25 23 21 21 23 27 29 30 29 28 27 28 29 28 27 27 26 25 24 23 22 21 21 20 17 15 13 13 13 12 12 11 10 9 8 7 7 7 7 8 10 10 9 6 4 3
15 11 11 15 13 10 13 12 8 5 5 9 15 20 21 23 25 23 21 20 19 19 18 16 15 14 13 16 22 25 22 21 21 19 16 12 12 13 15 18 21 21 21 21 21 23 26 28 29 28 29 30 30 28 27 28 27 25 24 23 21 20 19 18 15 13 13 13 12 11 10 10 9 9 7 7 8 8 9 9 7 4 2 1 2 3
16 12 11 13 14 12 15 14 10 7 8 10 13 18 20 20 22 23 24 23 20 20 20 18 17 16 15 16 19 21 22 23 24 22 18 15 14 13 12 14 17 19 20 20 21 23 25 27 29 29 30 31 30 29 28 28 27 26 24 22 20 19 18 16 14 13 13 12 11 11 10 10 9 9 8 8 8 7 6 5 4 3 3 2 3 3
18 15 10 12 15 13 15 15 8 4 8 11 11 16 23 23 20 18 21 25 25 23 22 22 20 19 18 19 20 21 22 23 23 23 21 19 18 17 16 15 16 17 18 18 20 21 23 26 28 29 30 30 29 29 28 27 26 25 23 21 19 18 17 15 14 13 13 11 11 11 10 9 9 8 7 7 6 6 6 5 5 4 4 4 3 3
18 17 12 12 14 12 13 15 9 3 6 10 9 12 19 24 23 18 16 21 25 24 24 24 23 21 20 20 20 21 20 19 20 22 23 22 22 21 20 20 19 17 16 16 17 18 20 24 26 28 29 29 28 28 27 26 25 23 21 20 19 18 16 15 14 14 13 11 11 10 9 9 8 7 7 7 7 7 7 7 6 5 4 4 4 4
17 17 13 10 11 13 12 11 8 4 6 11 11 10 13 18 22 19 15 16 21 23 23 23 23 22 21 21 23 23 21 22 24 24 24 25 25 24 23 24 23 20 17 17 18 19 22 25 26 28 28 29 29 28 26 25 24 22 21 20 20 18 16 15 15 14 13 11 11 10 9 9 8 8 8 9 9 9 9 8 7 5 5 4 4 4
18 17 14 9 10 14 11 7 7 7 5 8 11 10 10 13 16 17 15 16 19 21 21 22 23 22 22 23 23 23 22 24 27 27 26 25 24 24 25 26 25 22 19 19 18 20 24 26 27 29 29 30 29 27 25 25 24 22 21 20 20 19 17 16 15 14 13 11 11 10 10 9 9 10 10 10 11 11 10 8 7 6 5 4 4 4
20 18 16 12 10 13 11 8 7 3 5 9 12 10 9 10 12 15 12 12 17 21 23 24 24 23 24 26 24 21 21 23 24 24 26 24 22 24 27 27 25 23 20 19 19 22 25 26 28 29 29 29 29 27 25 24 23 23 22 21 20 20 19 17 15 14 13 12 11 10 10 10 11 11 12 12 12 11 9 8 7 6 5 4 4 5
19 19 17 15 13 13 12 11 8 4 9 12 12 11 11 12 13 14 10 9 15 21 24 26 25 24 25 26 25 21 21 23 22 20 22 23 21 22 25 25 24 22 20 20 21 24 27 28 28 28 27 28 28 27 25 24 23 22 21 21 21 21 19 17 15 14 13 12 11 11 11 12 12 13 13 13 12 11 9 8 7 6 4 4 4 5
17 18 17 16 15 12 12 14 12 6 8 10 10 10 12 11 10 11 8 7 12 17 19 21 23 23 23 23 22 21 20 23 22 19 21 22 19 18 19 19 19 18 19 20 22 24 27 29 28 28 28 28 28 27 26 25 23 22 21 22 22 20 18 17 15 14 13 12 12 12 13 14 14 14 14 13 12 10 9 8 7 5 4 4 5 5
15 16 16 16 15 13 12 14 11 6 9 14 13 11 11 8 7 9 8 8 12 16 15 15 18 21 22 21 23 23 22 22 22 21 23 24 20 18 18 16 16 16 16 19 22 25 26 27 27 28 29 29 29 27 27 25 24 22 23 23 21 19 18 17 15 14 14 13 12 14 15 16 16 16 15 13 11 10 9 7 6 5 4 5 5 5
16 15 14 14 15 14 12 9 5 3 10 15 13 12 13 11 8 7 8 10 14 16 17 17 18 20 22 24 25 24 22 22 21 21 23 24 22 21 20 19 19 17 15 17 22 25 25 27 29 30 31 30 29 27 26 25 23 22 23 22 19 18 18 17 16 15 14 13 14 16 17 17 17 17 15 13 11 10 8 7 5 5 4 4 5 5
17 18 14 10 11 12 9 3 5 8 14 17 14 12 14 14 10 7 7 9 12 14 16 19 20 20 21 22 22 20 20 20 20 19 20 22 22 23 22 22 22 18 15 16 21 25 27 30 31 32 32 32 30 27 26 24 21 22 22 20 18 19 19 18 16 14 13 14 16 18 19 19 18 17 15 13 11 10 8 7 5 4 4 4 5 5
13 19 18 9 6 9 8 4 4 8 13 15 14 10 11 13 12 9 7 7 8 10 12 13 14 15 15 14 13 13 14 15 16 17 19 20 22 24 24 24 22 18 15 17 20 25 29 32 33 33 33 32 30 27 25 23 21 22 22 19 19 20 20 18 15 14 15 17 19 20 20 20 19 17 14 13 11 10 8 6 5 4 3 4 4 5
10 16 18 11 7 8 6 4 5 6 7 11 12 9 9 12 12 11 9 7 7 8 8 8 9 10 10 9 9 9 9 11 13 15 17 19 21 22 23 23 21 16 16 18 20 23 29 32 34 34 34 33 31 29 26 23 22 22 21 20 21 21 19 17 16 16 17 19 20 21 21 20 18 16 14 13 11 10 8 6 4 3 3 3 4 4
12 14 14 11 10 11 7 4 7 9 9 10 10 7 8 11 10 9 10 10 9 9 8 8 9 10 10 10 9 9 9 9 11 13 15 16 19 21 21 21 19 17 17 19 20 24 28 32 34 36 35 34 31 28 25 24 24 23 22 22 23 21 19 17 17 17 18 20 22 23 22 20 18 16 15 13 11 9 7 5 3 2 2 3 3 3
7 9 9 8 9 12 11 9 8 7 9 11 10 9 11 12 9 8 8 9 11 11 11 11 12 12 12 12 11 11 11 12 13 13 14 16 18 21 23 22 21 20 18 18 21 25 29 32 35 36 35 33 30 27 25 25 24 23 23 23 23 20 18 19 18 18 20 23 24 23 22 20 18 16 15 13 10 8 6 5 4 3 3 3 3 3
2 4 7 8 9 11 13 13 10 7 7 9 10 11 12 11 9 9 9 10 11 13 13 13 13 12 13 13 12 12 14 16 16 15 15 16 18 21 22 21 21 21 19 19 22 26 30 33 35 35 33 32 30 28 26 26 25 24 25 25 22 19 19 20 19 20 23 25 25 23 22 20 18 16 14 12 10 8 7 6 5 5 4 4 3 2
4 5 7 8 8 8 10 13 12 10 8 9 10 11 11 10 10 10 10 10 11 12 13 13 12 12 12 14 13 12 13 16 17 16 15 16 18 20 20 19 19 20 21 21 24 28 32 35 36 35 33 32 30 29 27 27 26 27 27 26 23 20 20 20 20 22 25 26 25 23 21 19 17 16 14 12 10 8 7 6 6 6 5 4 3 2
Wind_Direction
194 200 205 206 207 207 206 208 210 210 211 209 209 211 212 221 221 219 228 213 189 196 209 212 216 220 216 216 234 222 218 227 221 214 207 199 203 204 209 210 200 198 197 193 203 215 223 232 237 243 250 253 253 253 246 236 240 232 223 225 229 236 229 220 210 211 240 239 197 191 203 216 214 205 197 188 185 184 176 149 112 121 164 209 224 234
197 208 211 208 206 205 206 208 210 213 220 218 214 215 212 220 223 219 228 212 186 197 212 210 217 221 210 197 205 214 216 217 211 211 204 195 198 204 210 209 198 192 192 195 205 212 218 225 230 234 242 256 259 254 252 241 234 235 231 229 229 228 224 225 223 218 226 226 214 203 202 208 210 212 204 180 166 153 146 149 178 210 222 243 253 265
202 213 212 206 204 204 206 209 210 213 222 226 222 218 213 216 221 221 225 205 181 196 211 204 215 219 202 193 204 215 217 211 209 208 198 193 198 202 207 207 200 191 187 195 204 209 215 220 230 234 239 258 255 242 248 248 230 226 227 227 228 224 221 225 230 230 220 213 216 219 218 219 213 209 197 149 139 150 173 192 215 239 266 283 290 299
204 213 208 203 204 204 206 208 209 212 220 229 227 221 214 209 217 221 214 199 184 194 202 200 215 214 184 184 199 197 200 203 201 198 195 196 201 201 203 203 200 193 189 195 201 207 213 213 222 231 233 247 245 236 246 248 229 226 228 229 230 224 221 222 226 227 220 213 217 222 222 226 227 215 182 147 159 181 205 226 260 282 292 296 301 306
208 210 202 201 203 203 206 206 206 210 217 225 228 226 217 205 214 220 202 192 189 195 203 207 214 202 173 177 189 178 188 205 202 195 194 197 200 201 201 201 199 195 196 202 204 206 207 203 210 224 227 235 242 240 240 235 226 227 230 231 223 216 218 216 217 219 218 215 216 219 212 206 212 206 190 183 183 199 237 268 285 291 292 295 300 306
212 207 199 199 201 202 206 206 204 207 212 219 223 224 220 205 211 217 194 180 190 200 208 216 217 193 182 193 197 182 187 203 202 195 194 192 194 198 199 200 198 197 204 209 209 209 207 207 215 215 211 220 235 238 232 225 220 221 224 224 211 206 211 210 208 212 216 218 215 213 200 191 201 204 194 201 226 247 262 275 279 282 287 293 300 305
212 204 199 198 199 200 204 208 204 203 209 216 215 218 224 213 211 215 188 172 197 211 208 220 231 201 181 194 205 197 189 195 198 196 196 192 191 194 197 201 199 198 206 209 209 211 208 209 210 202 193 199 220 232 228 220 213 213 215 210 202 200 203 200 201 208 215 218 213 206 198 193 199 204 212 235 253 262 267 270 273 278 286 292 298 304
208 200 198 197 197 198 202 208 204 201 209 213 208 215 226 225 221 215 186 172 201 217 211 222 231 216 194 195 201 204 191 189 196 199 201 198 194 193 196 204 203 197 203 209 211 207 201 202 199 198 202 207 222 231 224 213 203 206 208 198 190 188 192 193 194 202 208 211 209 206 205 200 198 211 237 256 265 266 266 268 273 280 285 292 300 310
204 200 196 195 197 199 202 205 203 201 208 211 204 211 222 232 230 217 196 188 198 210 218 218 213 216 215 199 194 200 196 191 196 199 203 204 200 199 200 204 202 197 202 208 214 210 202 202 200 202 216 221 221 211 201 195 191 198 197 185 177 175 183 192 191 192 195 197 204 212 217 223 229 242 252 260 263 264 266 269 276 282 288 297 303 308
202 202 196 195 198 200 201 203 201 200 204 206 201 205 217 230 234 233 223 209 200 209 226 214 202 211 225 195 187 193 197 195 197 200 204 206 204 203 202 199 195 195 200 205 210 211 205 200 198 196 202 202 178 172 180 179 182 188 184 182 182 183 190 197 197 196 197 201 212 223 234 244 247 249 253 258 261 264 270 273 279 284 290 296 297 300
200 201 199 198 199 200 198 199 201 200 200 202 201 201 208 219 233 245 232 208 202 218 228 214 200 208 233 198 185 194 201 196 198 205 207 208 206 205 205 199 194 193 197 204 206 205 203 198 195 190 188 190 180 180 181 177 180 185 185 189 193 196 200 205 207 209 213 218 224 232 242 250 254 257 259 263 266 270 273 273 276 280 285 291 292 296
198 196 201 200 198 198 194 196 201 200 197 203 211 199 193 207 226 229 198 192 206 225 223 216 205 210 228 208 189 197 203 195 197 203 203 205 205 206 207 200 198 201 202 207 208 203 202 200 196 190 188 194 189 187 188 184 188 194 195 197 199 202 207 212 216 218 222 225 228 235 242 247 252 258 263 268 272 274 275 275 275 277 280 283 286 291
198 195 199 197 194 194 191 193 198 194 194 207 218 199 183 194 214 206 180 190 216 227 222 216 212 216 224 225 204 189 190 191 193 198 198 202 206 209 209 202 202 208 208 212 213 207 204 201 197 191 190 194 190 190 195 197 203 208 208 206 205 206 209 212 216 220 224 226 229 235 242 247 253 258 265 270 275 278 280 280 279 279 277 278 281 285
195 195 197 193 190 192 191 191 192 188 193 207 215 199 187 187 196 200 194 191 209 228 225 212 209 219 225 233 214 185 189 194 189 201 208 204 205 211 210 204 204 208 212 216 215 209 204 200 195 191 189 191 188 190 200 208 213 216 213 211 209 210 214 216 218 222 226 231 237 243 248 252 256 262 267 272 276 279 280 282 282 280 277 276 278 281
196 191 189 188 187 188 192 195 192 188 193 203 208 199 196 199 195 197 199 194 204 220 223 210 206 215 219 222 201 189 197 198 187 204 213 201 201 210 209 202 204 209 215 216 211 206 203 197 192 190 188 189 188 191 202 211 215 214 212 211 213 215 219 222 224 226 231 238 245 251 254 257 262 266 270 273 276 278 279 281 282 282 281 278 277 279
201 185 182 187 189 191 197 204 196 189 195 199 198 199 203 203 194 191 203 207 210 214 215 213 211 203 194 180 172 178 182 182 186 202 207 199 203 212 209 203 206 212 217 216 209 203 198 194 191 189 189 190 191 194 202 209 211 209 209 210 214 219 222 225 227 230 238 247 252 256 258 261 264 268 272 274 276 278 280 281 283 285 285 283 282 281
190 179 182 189 195 197 201 206 198 191 195 192 191 200 207 205 192 186 199 206 212 216 202 206 205 147 144 143 151 168 175 178 189 200 201 196 202 212 213 211 212 215 219 219 211 203 198 194 192 191 193 195 200 206 210 212 212 208 208 211 215 220 224 229 233 238 247 253 255 257 259 263 267 271 275 277 278 280 281 283 285 287 288 289 287 284
183 184 185 188 196 198 197 204 202 196 197 192 193 199 203 209 206 191 191 191 195 217 200 202 201 161 158 161 153 168 178 175 183 191 189 189 201 213 216 216 218 218 220 220 213 207 202 198 194 194 197 201 210 218 219 218 216 210 209 214 219 224 229 236 241 248 255 258 258 260 263 267 271 274 277 278 281 283 284 287 288 290 291 291 289 286
184 186 180 186 194 190 190 203 204 198 201 201 197 197 200 211 208 188 188 198 194 209 206 203 205 192 188 183 169 173 174 170 175 181 185 194 208 215 215 218 222 218 217 218 213 208 204 200 197 197 201 208 217 223 225 223 219 214 214 219 224 231 238 243 247 254 259 260 260 262 265 270 274 277 280 282 284 285 287 289 290 291 292 291 290 288
185 187 173 181 189 182 185 200 201 193 199 205 200 199 206 215 209 193 194 201 197 206 209 203 207 207 203 193 182 179 177 180 186 187 193 203 208 212 216 221 223 217 215 217 212 207 206 204 200 201 207 215 222 225 225 224 221 219 221 225 232 240 244 245 249 258 264 266 269 274 276 280 283 285 287 288 289 289 290 291 291 292 292 291 290 288
189 193 169 172 180 181 186 196 198 190 193 202 201 198 203 211 212 206 200 198 202 209 214 210 203 209 219 207 187 183 185 191 197 201 207 210 208 213 220 222 221 215 215 218 214 209 209 207 205 209 213 215 221 224 224 227 227 224 226 231 238 243 240 240 251 265 274 280 285 286 286 288 290 292 293 294 294 293 292 292 292 291 291 290 289 288
192 185 163 172 184 186 190 194 195 193 193 198 202 200 201 202 205 206 200 200 204 207 214 222 206 199 224 219 194 189 191 192 196 204 212 215 214 214 218 221 219 215 217 220 218 214 212 210 210 212 213 214 218 221 223 228 230 231 234 236 238 237 233 238 253 265 277 288 293 291 289 289 290 291 294 295 295 294 294 293 292 292 291 290 290 290
188 174 171 187 193 190 191 194 196 200 197 198 209 209 201 202 206 208 204 196 203 215 218 220 211 153 160 185 185 185 188 190 194 202 211 219 218 213 216 220 217 214 218 220 218 217 213 212 213 213 213 215 218 220 224 228 230 235 239 240 241 240 238 243 252 260 276 294 300 295 289 287 289 292 294 295 295 295 294 294 294 294 293 292 293 293
180 175 180 189 190 186 189 195 199 205 202 202 211 215 206 205 207 212 210 195 202 219 213 210 209 144 142 153 170 181 184 188 197 205 213 217 214 213 216 218 216 213 216 218 217 216 213 213 215 214 215 218 221 224 226 228 231 236 240 243 246 248 248 250 254 262 279 298 304 296 289 288 289 292 294 294 294 294 293 294 293 293 293 294 295 295
178 179 181 177 179 184 188 190 195 202 204 204 208 212 216 213 203 204 210 206 213 222 215 214 185 151 157 159 165 176 178 186 199 208 211 209 210 215 217 220 220 217 217 218 215 213 214 215 216 218 219 221 223 225 226 227 232 236 240 244 246 250 253 254 259 270 283 297 303 297 289 288 288 290 291 290 291 290 290 291 291 293 294 294 295 296
179 185 187 183 182 187 191 188 188 195 199 203 206 205 212 217 201 197 207 214 216 215 222 236 181 144 168 175 168 173 180 188 199 207 210 211 214 219 221 221 224 223 222 218 212 213 215 215 218 221 222 223 224 224 224 226 231 236 240 243 246 250 253 257 268 280 288 296 300 295 288 286 287 288 287 287 287 287 289 291 292 294 295 294 296 298
183 196 196 195 194 192 195 191 186 191 197 203 208 203 203 212 210 202 205 214 215 204 221 237 186 144 169 177 165 170 184 194 202 208 216 221 221 222 222 223 225 227 227 219 210 212 214 214 219 223 224 224 224 225 228 229 232 236 240 246 251 254 258 267 278 284 289 294 294 289 284 284 285 286 286 286 288 290 293 295 296 295 294 294 297 300
191 207 206 208 209 196 191 192 187 191 200 204 209 206 201 209 220 217 206 207 216 220 217 208 168 152 168 169 164 171 187 202 209 214 222 227 226 223 221 225 229 229 228 220 211 210 212 215 219 223 225 225 225 228 232 232 233 237 242 249 256 260 264 273 279 284 290 292 287 281 278 281 284 286 288 290 293 296 297 297 296 294 293 294 297 303
195 210 213 218 217 197 190 196 191 190 200 204 207 208 204 208 217 221 214 204 209 225 227 197 172 175 172 171 178 182 190 205 211 216 224 228 230 228 223 225 229 228 226 220 213 212 213 216 219 222 225 225 224 227 231 233 235 240 246 252 257 261 266 273 280 288 291 286 277 275 277 281 284 286 288 291 294 296 296 295 293 291 290 292 298 308
194 216 221 211 211 213 212 201 189 192 200 202 203 207 208 208 211 215 218 215 212 221 230 215 192 188 180 183 191 191 194 204 209 215 223 226 230 231 226 225 227 227 224 218 215 215 215 216 218 221 223 224 224 227 231 235 239 242 248 253 256 261 267 275 285 291 288 278 272 274 277 279 281 283 286 288 291 292 290 287 284 281 280 285 297 308
202 231 224 200 204 226 236 222 219 212 202 200 204 206 207 210 210 209 214 219 219 220 221 211 196 192 188 186 191 195 199 204 207 214 221 228 235 236 233 231 230 230 226 219 217 217 217 217 216 217 220 223 227 230 234 238 241 243 248 251 255 260 266 278 288 288 278 270 270 272 273 275 277 279 283 284 285 283 277 271 263 258 275 291 301 309
209 232 213 196 201 216 218 232 263 227 198 198 204 204 205 210 210 208 211 214 213 216 220 213 203 198 189 183 189 200 205 206 210 217 224 235 242 242 240 239 238 238 234 227 223 221 219 217 215 216 219 224 228 232 234 238 242 245 247 250 255 261 269 280 284 276 264 261 264 265 266 269 271 275 279 280 278 272 265 262 268 279 289 294 299 305
208 221 200 195 204 204 202 222 255 212 191 201 206 206 207 209 210 210 212 212 209 212 217 213 204 197 190 191 197 202 206 208 211 213 219 233 242 239 237 238 240 240 239 236 234 229 223 218 216 216 220 224 228 231 237 244 248 248 250 254 260 265 274 280 274 260 254 255 256 257 259 263 269 272 274 273 269 270 275 280 285 287 289 291 292 295
204 214 196 191 203 196 182 198 219 210 207 210 205 208 211 211 212 212 211 210 209 209 209 208 208 204 193 197 201 200 205 216 218 214 218 235 251 247 237 232 234 237 239 240 239 236 229 222 218 217 220 226 229 229 236 245 247 247 251 256 262 270 276 275 262 250 249 249 248 253 259 265 270 270 270 270 270 275 280 280 277 267 250 236 261 284
199 209 201 189 202 193 168 178 207 216 222 229 217 214 218 215 210 212 214 213 210 209 208 209 213 209 202 210 211 202 204 217 223 225 231 242 248 247 242 235 233 236 239 239 238 234 227 221 218 218 221 226 227 225 230 239 243 244 249 255 263 273 275 265 251 245 245 245 249 259 265 268 269 265 264 266 267 266 261 247 218 194 197 225 253 276
193 201 202 191 203 201 175 180 204 209 216 233 232 221 219 215 207 209 219 218 213 211 212 212 214 210 208 218 219 212 212 216 221 230 239 243 241 240 241 238 236 238 240 240 240 237 226 216 214 218 221 223 225 226 230 237 241 242 247 256 267 274 266 251 242 242 243 247 257 266 268 266 261 257 253 246 238 229 218 204 195 197 210 228 249 275
191 197 205 204 207 200 183 188 200 194 211 222 221 215 214 212 209 213 225 221 212 213 215 213 212 211 212 213 207 205 213 215 216 226 234 236 237 240 240 239 239 241 240 238 240 236 224 215 213 218 222 224 226 229 232 237 241 243 249 261 271 268 253 239 237 240 244 252 262 265 262 256 248 238 226 216 208 204 200 197 199 205 216 235 256 281
195 197 207 220 210 194 192 198 199 210 238 226 214 207 203 205 207 212 226 226 213 212 217 213 208 209 211 209 201 198 205 211 215 224 230 230 234 238 239 239 241 242 237 231 229 224 217 213 213 217 222 226 228 229 230 235 240 245 254 265 269 258 240 231 234 239 245 254 259 256 251 244 231 217 207 202 197 196 196 197 203 213 226 243 264 287
195 198 208 228 214 201 210 229 213 209 221 202 191 191 196 200 199 199 216 229 217 211 213 209 205 206 211 215 212 204 204 212 219 226 230 230 236 240 238 238 242 244 238 229 223 218 214 211 210 213 219 225 227 227 229 235 242 248 257 265 261 245 229 228 234 239 246 252 252 248 242 231 218 207 200 197 194 194 196 200 208 218 230 249 272 288
194 201 218 234 224 207 212 235 234 189 134 157 166 171 182 184 180 181 198 223 216 210 210 208 204 207 215 222 219 209 210 218 223 230 234 235 239 242 240 241 246 247 240 229 220 214 213 213 214 216 221 226 228 227 230 235 241 247 255 259 250 233 224 228 234 239 246 248 245 241 231 218 210 204 198 194 193 194 199 204 211 221 233 252 275 289
194 197 214 226 225 211 207 227 236 147 123 145 152 161 171 161 164 181 196 212 208 206 211 212 207 209 218 222 219 216 221 224 221 228 239 240 239 240 239 241 245 242 235 228 220 213 213 216 219 222 224 226 227 227 230 235 240 247 254 252 238 225 221 227 233 240 246 245 239 230 218 208 204 200 195 193 194 197 202 206 213 222 235 255 278 295
197 195 204 216 224 221 213 224 232 207 175 171 155 165 178 161 163 188 195 196 196 193 199 207 206 208 216 217 213 211 216 221 223 230 237 238 240 242 241 240 241 241 235 228 221 216 216 216 216 218 219 219 221 224 229 235 240 248 250 241 228 219 219 226 233 240 244 240 231 220 209 204 200 195 192 194 197 200 203 208 215 225 244 268 287 303
195 194 201 208 218 228 225 223 231 223 189 185 176 177 183 175 187 197 177 171 180 174 175 192 201 206 209 208 208 211 216 227 233 232 232 237 243 248 248 246 246 249 246 234 225 220 217 213 211 214 217 217 219 223 228 233 238 243 240 230 220 216 220 227 234 240 240 234 223 211 204 200 196 192 192 196 199 202 203 207 218 232 253 278 294 309
195 193 204 206 207 222 226 211 208 163 158 168 174 181 185 187 198 197 181 183 184 173 171 180 189 198 206 211 219 226 231 237 238 232 232 239 246 248 250 252 253 254 252 241 229 220 212 208 210 215 217 217 219 222 227 231 236 236 229 221 216 216 222 229 236 239 236 226 213 205 199 196 192 191 194 197 198 201 203 208 221 239 261 284 302 317
195 196 207 203 197 217 227 180 144 157 164 173 181 185 191 197 197 188 185 190 186 178 178 182 185 195 208 219 227 233 235 238 239 239 238 242 247 249 250 254 258 256 252 243 230 217 209 209 214 216 215 214 217 222 226 230 232 228 222 217 216 218 223 231 237 236 229 217 207 201 197 193 191 193 195 196 196 199 204 209 221 242 267 291 310 323
194 202 211 208 189 213 236 247 184 165 168 183 193 192 193 198 200 201 201 201 201 198 192 189 191 200 210 221 226 228 233 238 239 242 243 242 245 249 250 254 257 253 247 245 233 218 211 213 215 215 214 216 220 222 224 227 227 222 218 217 218 220 225 233 235 230 222 212 204 199 195 191 192 194 194 193 196 199 203 208 221 246 275 299 312 319
207 213 219 228 229 221 230 242 216 190 171 176 182 184 187 191 203 218 226 234 241 233 213 197 196 202 208 211 212 220 234 240 240 246 250 246 245 249 250 253 255 250 244 245 236 221 216 216 214 212 213 218 222 222 223 225 224 220 217 215 218 223 228 232 230 225 218 208 201 197 193 191 193 195 192 193 196 198 202 209 221 246 277 295 303 309
223 221 220 226 231 229 232 222 205 216 223 199 182 187 196 195 205 225 231 235 243 244 232 215 209 214 218 218 219 225 231 238 244 254 259 258 255 254 253 254 257 254 245 239 231 223 220 217 215 215 218 221 221 220 222 224 222 219 216 215 220 226 230 229 226 220 212 204 199 195 191 191 194 194 192 194 196 198 201 207 215 233 256 273 283 295
215 212 217 224 226 226 231 225 199 200 223 218 211 222 221 212 221 239 238 235 234 234 233 226 219 222 227 229 233 238 240 243 248 251 257 262 261 257 256 257 260 259 251 237 227 223 219 216 217 219 221 222 221 221 223 223 220 218 216 218 224 229 229 226 223 216 206 200 197 193 191 192 194 194 194 194 193 193 195 194 199 213 227 245 262 277
200 195 216 226 226 221 222 222 211 195 198 202 209 224 224 218 233 250 248 242 236 230 230 230 226 227 229 230 236 245 251 254 255 253 255 261 261 258 258 258 258 257 250 236 225 220 215 214 218 222 224 222 222 223 224 221 218 217 217 221 226 228 226 223 219 211 203 199 195 191 192 194 194 193 194 192 188 191 194 192 197 209 217 229 242 254
239 230 227 224 229 231 228 227 223 212 208 210 216 227 226 219 229 242 240 237 235 229 227 229 227 227 232 234 235 241 248 252 256 258 261 263 262 260 259 258 255 251 243 231 223 216 212 212 217 222 224 224 223 223 223 220 217 217 220 223 225 224 223 222 216 208 201 196 192 191 193 195 194 192 192 190 189 192 194 193 198 206 212 219 221 219
Height
3065 3067 3064 3062 3063 3067 3071 3075 3079 3081 3083 3084 3085 3087 3088 3089 3088 3089 3090 3090 3093 3097 3098 3100 3101 3105 3105 3100 3102 3107 3107 3110 3112 3113 3115 3117 3118 3119 3120 3121 3123 3126 3128 3129 3129 3130 3132 3133 3135 3137 3139 3140 3141 3143 3148 3150 3150 3150 3150 3150 3151 3152 3153 3154 3155 3157 3160 3164 3165 3166 3165 3163 3162 3163 3165 3166 3164 3164 3164 3164 3163 3163 3165 3167 3167 3167
3063 3060 3056 3058 3063 3069 3073 3076 3079 3081 3081 3082 3083 3084 3085 3086 3086 3086 3087 3088 3091 3094 3095 3098 3100 3103 3103 3099 3100 3105 3107 3109 3111 3112 3114 3116 3117 3118 3118 3119 3122 3124 3126 3126 3127 3128 3130 3132 3134 3137 3139 3139 3139 3142 3145 3148 3149 3149 3148 3148 3149 3151 3152 3153 3154 3157 3160 3162 3163 3163 3164 3163 3163 3164 3165 3165 3162 3162 3163 3164 3165 3165 3165 3166 3166 3166
3056 3051 3052 3059 3065 3069 3073 3075 3078 3079 3079 3080 3080 3081 3081 3083 3084 3084 3084 3086 3088 3091 3093 3096 3098 3100 3100 3097 3100 3104 3106 3108 3110 3112 3113 3114 3115 3116 3116 3118 3120 3121 3123 3124 3125 3126 3129 3130 3132 3135 3136 3136 3136 3139 3143 3145 3147 3147 3146 3147 3148 3150 3152 3153 3154 3157 3159 3161 3162 3163 3162 3161 3162 3163 3163 3161 3161 3163 3164 3165 3165 3165 3165 3165 3165 3165
3047 3046 3053 3061 3064 3068 3071 3073 3076 3078 3077 3077 3077 3077 3077 3080 3081 3080 3081 3084 3086 3089 3092 3095 3096 3098 3098 3097 3100 3104 3105 3107 3110 3111 3112 3113 3114 3114 3116 3117 3118 3119 3120 3121 3123 3125 3127 3129 3131 3133 3134 3135 3134 3136 3139 3142 3144 3145 3145 3146 3148 3150 3152 3154 3154 3155 3158 3161 3163 3164 3163 3161 3161 3162 3161 3161 3163 3164 3164 3165 3165 3165 3165 3165 3165 3165
3046 3049 3056 3060 3063 3066 3068 3070 3073 3075 3075 3075 3075 3074 3074 3077 3078 3077 3078 3082 3086 3090 3092 3093 3094 3095 3096 3097 3100 3105 3106 3107 3109 3110 3111 3112 3113 3114 3115 3116 3117 3118 3119 3121 3123 3125 3126 3128 3130 3132 3133 3133 3133 3134 3136 3139 3142 3144 3145 3146 3147 3149 3151 3153 3154 3155 3158 3161 3163 3164 3165 3163 3164 3164 3164 3164 3165 3165 3165 3165 3165 3165 3164 3164 3164 3164
3048 3052 3055 3057 3061 3063 3065 3067 3069 3071 3073 3073 3073 3072 3072 3075 3076 3076 3077 3082 3087 3088 3089 3091 3091 3091 3095 3097 3098 3102 3105 3105 3107 3109 3109 3111 3111 3111 3113 3114 3116 3117 3118 3121 3123 3125 3126 3128 3130 3130 3131 3132 3132 3133 3135 3137 3140 3143 3144 3146 3147 3148 3150 3152 3154 3156 3158 3161 3162 3164 3165 3165 3165 3165 3164 3165 3165 3165 3165 3165 3164 3164 3164 3163 3163 3163
3047 3051 3053 3054 3058 3060 3063 3065 3066 3069 3071 3070 3071 3071 3072 3074 3075 3075 3076 3081 3085 3085 3087 3088 3086 3087 3092 3096 3096 3099 3103 3105 3106 3108 3109 3109 3108 3108 3110 3112 3115 3117 3119 3121 3123 3125 3127 3128 3129 3129 3130 3131 3132 3133 3134 3137 3140 3142 3144 3146 3147 3148 3150 3152 3154 3156 3158 3160 3162 3163 3164 3164 3164 3163 3163 3165 3165 3165 3164 3164 3164 3164 3163 3163 3162 3162
3045 3047 3049 3051 3055 3057 3059 3061 3063 3067 3068 3067 3070 3071 3071 3073 3073 3073 3075 3080 3082 3084 3086 3086 3085 3085 3089 3094 3095 3097 3101 3104 3105 3107 3108 3108 3107 3107 3108 3111 3116 3119 3120 3121 3123 3124 3126 3127 3128 3129 3130 3131 3132 3133 3135 3137 3140 3142 3144 3146 3147 3148 3149 3152 3155 3156 3157 3159 3161 3163 3163 3162 3162 3163 3163 3164 3164 3164 3164 3164 3163 3163 3162 3162 3161 3161
3042 3043 3045 3048 3051 3054 3055 3058 3061 3065 3066 3067 3069 3071 3071 3071 3070 3071 3074 3076 3080 3083 3083 3082 3084 3085 3085 3090 3094 3094 3097 3102 3104 3106 3108 3108 3106 3106 3108 3112 3117 3120 3121 3121 3122 3123 3125 3126 3127 3128 3129 3130 3132 3133 3134 3137 3140 3142 3144 3145 3146 3147 3149 3152 3154 3156 3158 3159 3160 3161 3161 3161 3161 3163 3163 3164 3164 3164 3164 3163 3163 3162 3161 3161 3160 3160
3040 3042 3045 3047 3049 3051 3054 3058 3061 3063 3064 3066 3069 3070 3071 3071 3069 3070 3071 3073 3078 3081 3079 3078 3081 3082 3082 3085 3090 3091 3093 3098 3101 3104 3107 3107 3105 3105 3108 3113 3117 3119 3119 3120 3121 3122 3124 3125 3126 3127 3128 3129 3131 3132 3134 3137 3139 3141 3143 3145 3146 3147 3149 3151 3152 3155 3157 3158 3158 3159 3160 3160 3162 3163 3163 3163 3163 3163 3162 3162 3162 3161 3160 3160 3159 3159
3039 3042 3044 3045 3047 3050 3054 3057 3059 3061 3064 3066 3067 3068 3070 3071 3071 3069 3069 3072 3077 3077 3075 3076 3078 3081 3080 3080 3084 3087 3088 3093 3097 3101 3104 3104 3104 3105 3108 3112 3115 3116 3117 3118 3120 3122 3123 3124 3125 3126 3128 3129 3131 3132 3134 3136 3138 3140 3142 3144 3145 3147 3148 3149 3151 3153 3154 3156 3157 3158 3159 3160 3161 3162 3162 3162 3162 3161 3161 3161 3160 3160 3159 3158 3158 3157
3037 3040 3042 3043 3046 3050 3053 3056 3058 3060 3063 3064 3064 3065 3068 3070 3070 3069 3070 3073 3075 3073 3073 3074 3076 3080 3079 3079 3081 3083 3086 3091 3094 3097 3100 3101 3103 3105 3106 3109 3113 3113 3115 3117 3119 3121 3122 3123 3124 3126 3127 3129 3130 3132 3133 3136 3138 3140 3141 3143 3144 3146 3147 3149 3150 3152 3153 3154 3156 3157 3158 3159 3160 3160 3161 3160 3160 3160 3160 3159 3159 3158 3157 3157 3156 3155
3033 3036 3038 3041 3044 3047 3050 3053 3055 3059 3061 3061 3061 3062 3065 3067 3069 3068 3068 3072 3073 3071 3072 3073 3075 3077 3077 3078 3081 3082 3086 3090 3093 3095 3097 3100 3103 3103 3104 3108 3111 3111 3113 3115 3117 3119 3121 3122 3124 3125 3126 3128 3129 3131 3133 3135 3137 3139 3140 3142 3143 3145 3147 3148 3150 3151 3152 3153 3155 3156 3157 3158 3158 3159 3159 3159 3159 3159 3158 3157 3157 3156 3156 3155 3154 3154
3029 3033 3035 3037 3040 3043 3046 3048 3050 3053 3055 3057 3056 3058 3060 3062 3066 3067 3065 3068 3072 3072 3071 3072 3073 3075 3076 3078 3079 3080 3084 3089 3092 3093 3094 3099 3102 3100 3102 3109 3111 3111 3112 3114 3116 3118 3120 3121 3123 3124 3126 3127 3129 3131 3133 3134 3136 3137 3139 3141 3142 3144 3146 3147 3149 3150 3151 3152 3153 3154 3155 3156 3157 3157 3157 3157 3157 3157 3156 3155 3155 3154 3154 3153 3152 3152
3025 3026 3029 3032 3035 3039 3044 3046 3047 3050 3053 3055 3055 3057 3058 3060 3063 3066 3065 3068 3071 3071 3069 3070 3071 3072 3074 3075 3076 3078 3082 3087 3091 3090 3092 3099 3101 3098 3101 3107 3110 3110 3111 3113 3115 3117 3118 3120 3122 3123 3125 3127 3129 3131 3132 3134 3135 3137 3138 3140 3141 3143 3145 3146 3148 3149 3150 3151 3152 3153 3154 3154 3155 3155 3155 3155 3155 3155 3154 3153 3153 3152 3152 3151 3150 3149
3024 3025 3029 3034 3037 3040 3043 3045 3048 3051 3052 3054 3056 3057 3058 3059 3062 3065 3066 3067 3068 3068 3068 3068 3069 3070 3072 3074 3076 3078 3082 3087 3089 3088 3091 3096 3097 3097 3100 3103 3106 3108 3109 3111 3114 3115 3117 3119 3121 3122 3124 3126 3128 3130 3131 3133 3134 3136 3138 3139 3141 3143 3145 3146 3147 3148 3150 3150 3151 3152 3152 3153 3153 3153 3153 3153 3153 3152 3152 3151 3150 3150 3149 3148 3148 3147
3022 3026 3031 3036 3039 3041 3042 3044 3047 3049 3050 3052 3055 3056 3057 3059 3061 3063 3066 3066 3066 3067 3067 3067 3068 3069 3071 3074 3076 3078 3082 3087 3086 3086 3090 3094 3094 3096 3098 3101 3104 3106 3107 3110 3112 3114 3116 3118 3120 3122 3124 3126 3127 3129 3130 3132 3133 3135 3137 3139 3141 3143 3144 3145 3146 3148 3148 3149 3150 3150 3150 3151 3151 3151 3150 3150 3150 3149 3149 3148 3148 3147 3146 3146 3146 3145
3022 3025 3029 3033 3036 3039 3042 3044 3046 3048 3049 3050 3052 3055 3059 3060 3059 3060 3063 3064 3066 3067 3065 3065 3067 3069 3071 3074 3076 3079 3082 3083 3083 3084 3089 3092 3093 3095 3097 3099 3102 3105 3107 3109 3110 3113 3115 3116 3119 3121 3123 3125 3126 3127 3129 3130 3132 3134 3136 3138 3139 3141 3143 3144 3145 3146 3146 3147 3147 3148 3148 3148 3148 3148 3147 3147 3146 3146 3146 3145 3145 3144 3144 3143 3143 3143
3023 3024 3027 3031 3034 3037 3042 3043 3043 3045 3048 3049 3053 3056 3057 3056 3055 3057 3060 3062 3065 3066 3064 3063 3065 3067 3069 3072 3075 3078 3079 3079 3081 3084 3087 3090 3092 3093 3095 3097 3100 3103 3106 3107 3108 3110 3113 3115 3117 3120 3122 3123 3124 3126 3127 3128 3130 3133 3134 3136 3138 3140 3141 3142 3143 3143 3144 3144 3145 3145 3145 3145 3145 3145 3144 3144 3144 3143 3143 3142 3142 3142 3141 3141 3140 3140
3023 3023 3024 3030 3033 3036 3039 3040 3039 3042 3046 3049 3052 3054 3054 3053 3053 3055 3057 3059 3062 3064 3064 3063 3063 3064 3066 3069 3072 3077 3078 3078 3080 3083 3085 3088 3090 3091 3093 3095 3098 3101 3103 3104 3106 3109 3111 3114 3116 3119 3121 3122 3123 3124 3126 3126 3128 3131 3132 3134 3136 3138 3139 3140 3141 3141 3142 3142 3142 3142 3142 3142 3142 3142 3141 3141 3141 3140 3140 3140 3139 3139 3139 3139 3138 3138
3023 3023 3023 3028 3032 3034 3034 3035 3036 3040 3044 3046 3047 3049 3051 3052 3053 3053 3055 3057 3059 3061 3062 3062 3061 3063 3067 3068 3070 3074 3077 3077 3079 3082 3085 3087 3089 3090 3091 3093 3096 3099 3101 3102 3104 3107 3110 3112 3115 3117 3119 3121 3122 3123 3124 3125 3126 3128 3130 3132 3134 3136 3137 3139 3139 3139 3140 3140 3140 3140 3140 3140 3139 3139 3139 3139 3138 3138 3138 3137 3137 3137 3137 3137 3136 3136
3022 3023 3025 3027 3029 3030 3032 3034 3038 3041 3043 3045 3045 3046 3048 3050 3051 3052 3052 3053 3056 3058 3060 3060 3061 3064 3068 3068 3068 3071 3076 3077 3079 3081 3084 3087 3089 3090 3090 3092 3094 3097 3098 3100 3102 3105 3108 3111 3113 3115 3117 3119 3120 3121 3122 3123 3125 3126 3127 3130 3132 3134 3136 3137 3137 3137 3138 3138 3138 3138 3138 3137 3137 3137 3137 3136 3136 3136 3136 3135 3135 3135 3135 3135 3134 3134
3022 3024 3026 3027 3027 3029 3033 3037 3039 3041 3043 3046 3046 3045 3047 3049 3049 3049 3049 3051 3055 3057 3058 3058 3060 3063 3065 3067 3068 3071 3075 3077 3078 3079 3082 3085 3087 3088 3089 3090 3092 3095 3097 3098 3100 3104 3107 3110 3111 3113 3115 3117 3118 3119 3121 3123 3124 3124 3125 3128 3131 3132 3134 3135 3135 3135 3136 3136 3136 3135 3135 3135 3135 3135 3135 3134 3134 3134 3134 3133 3133 3133 3133 3133 3132 3132
3022 3024 3025 3026 3027 3030 3035 3038 3040 3041 3043 3044 3044 3044 3045 3046 3047 3048 3050 3053 3056 3056 3056 3056 3059 3063 3065 3067 3070 3072 3074 3076 3076 3078 3081 3083 3085 3086 3087 3088 3091 3093 3095 3096 3099 3102 3105 3107 3109 3110 3112 3114 3116 3119 3121 3122 3122 3122 3124 3126 3129 3130 3131 3132 3133 3133 3134 3134 3134 3133 3133 3133 3133 3133 3133 3132 3132 3132 3132 3132 3131 3131 3131 3131 3131 3130
3021 3023 3024 3025 3026 3029 3032 3033 3035 3038 3039 3040 3042 3043 3044 3044 3046 3049 3052 3054 3055 3054 3054 3055 3057 3062 3065 3067 3070 3072 3074 3074 3075 3077 3079 3081 3082 3083 3084 3087 3089 3091 3092 3094 3097 3100 3103 3105 3106 3107 3109 3112 3115 3118 3119 3120 3120 3121 3123 3125 3127 3128 3129 3130 3131 3131 3132 3132 3132 3132 3131 3131 3131 3131 3131 3131 3131 3130 3130 3130 3130 3130 3130 3129 3129 3129
3021 3022 3023 3023 3024 3025 3025 3025 3027 3032 3035 3038 3040 3042 3044 3043 3045 3048 3051 3052 3053 3053 3054 3054 3055 3060 3064 3066 3069 3072 3072 3072 3074 3077 3078 3079 3080 3081 3083 3085 3087 3088 3090 3092 3095 3098 3100 3103 3104 3105 3107 3111 3114 3116 3117 3118 3118 3120 3122 3124 3125 3126 3127 3128 3129 3129 3130 3130 3130 3130 3130 3130 3130 3130 3130 3129 3129 3129 3129 3129 3128 3128 3128 3128 3127 3127
3021 3022 3022 3022 3022 3023 3024 3025 3028 3033 3035 3037 3038 3040 3043 3044 3045 3047 3049 3050 3052 3054 3055 3055 3056 3059 3062 3064 3067 3070 3070 3070 3073 3075 3076 3076 3078 3079 3081 3083 3085 3086 3088 3091 3094 3096 3098 3101 3102 3103 3106 3109 3112 3113 3114 3115 3117 3119 3121 3123 3125 3125 3126 3127 3127 3127 3128 3128 3128 3128 3128 3128 3128 3128 3128 3128 3128 3127 3127 3127 3127 3126 3126 3126 3126 3125
3021 3022 3022 3022 3022 3023 3026 3028 3030 3033 3035 3036 3037 3038 3041 3044 3045 3046 3047 3050 3053 3054 3055 3056 3057 3059 3062 3064 3066 3068 3069 3070 3072 3073 3074 3074 3075 3077 3080 3081 3083 3085 3086 3089 3092 3095 3096 3098 3100 3102 3104 3107 3110 3112 3112 3114 3116 3118 3121 3122 3123 3124 3124 3125 3125 3125 3125 3125 3125 3126 3126 3126 3127 3127 3126 3126 3126 3126 3126 3126 3125 3125 3125 3125 3125 3124
3021 3022 3022 3023 3022 3023 3025 3027 3029 3032 3034 3036 3038 3039 3041 3044 3045 3045 3047 3050 3053 3054 3054 3055 3056 3058 3062 3064 3064 3066 3069 3071 3071 3071 3072 3072 3074 3076 3078 3079 3081 3082 3085 3087 3090 3092 3094 3096 3098 3100 3103 3106 3109 3110 3110 3112 3114 3117 3119 3120 3121 3122 3122 3122 3122 3122 3123 3123 3123 3124 3124 3125 3125 3125 3125 3125 3125 3125 3125 3124 3124 3124 3124 3124 3124 3123
3021 3022 3022 3023 3023 3023 3024 3025 3027 3031 3033 3035 3037 3039 3041 3043 3044 3046 3048 3050 3052 3053 3055 3056 3056 3058 3061 3063 3064 3066 3068 3069 3069 3070 3070 3071 3073 3074 3076 3078 3079 3080 3083 3085 3088 3090 3092 3094 3097 3099 3102 3105 3107 3108 3109 3111 3113 3115 3117 3118 3119 3119 3119 3119 3120 3120 3120 3120 3121 3122 3123 3123 3123 3124 3124 3124 3124 3124 3123 3123 3123 3123 3123 3123 3123 3122
3021 3022 3022 3023 3024 3025 3025 3026 3027 3029 3031 3033 3036 3039 3041 3042 3044 3046 3048 3049 3051 3052 3055 3056 3057 3058 3059 3062 3064 3064 3066 3067 3068 3068 3069 3070 3072 3073 3074 3076 3077 3079 3081 3083 3085 3087 3089 3092 3095 3098 3101 3104 3106 3107 3108 3109 3110 3113 3115 3116 3116 3117 3117 3117 3118 3118 3118 3119 3119 3120 3121 3122 3122 3123 3123 3122 3122 3122 3122 3122 3122 3122 3122 3122 3122 3121
3021 3022 3023 3024 3025 3026 3027 3028 3028 3027 3029 3032 3034 3037 3039 3041 3043 3044 3046 3048 3050 3052 3053 3054 3055 3058 3059 3060 3061 3062 3065 3067 3067 3068 3069 3070 3071 3072 3073 3074 3076 3077 3079 3081 3083 3085 3088 3090 3093 3096 3099 3102 3104 3105 3105 3106 3108 3111 3113 3114 3114 3115 3115 3116 3116 3116 3117 3117 3118 3119 3120 3121 3121 3121 3121 3121 3120 3120 3120 3121 3121 3121 3121 3121 3121 3121
3022 3022 3023 3025 3025 3026 3028 3030 3029 3028 3029 3030 3032 3035 3037 3039 3041 3044 3045 3047 3049 3051 3052 3053 3055 3058 3059 3059 3059 3061 3064 3066 3067 3067 3068 3069 3070 3070 3071 3072 3074 3076 3078 3080 3081 3084 3086 3089 3092 3095 3097 3100 3102 3103 3103 3104 3106 3108 3110 3111 3112 3112 3113 3114 3114 3114 3115 3116 3117 3118 3119 3119 3119 3119 3119 3119 3119 3119 3119 3120 3120 3120 3120 3120 3120 3120
3023 3023 3023 3025 3025 3026 3029 3031 3031 3031 3031 3030 3031 3034 3036 3038 3041 3042 3044 3046 3048 3050 3051 3053 3055 3057 3058 3057 3057 3060 3063 3065 3065 3066 3067 3068 3069 3069 3070 3071 3073 3074 3076 3078 3079 3082 3084 3087 3090 3093 3094 3096 3098 3100 3101 3102 3104 3106 3107 3108 3109 3110 3111 3111 3112 3112 3114 3115 3116 3116 3117 3117 3117 3117 3117 3117 3118 3118 3118 3119 3119 3119 3119 3120 3120 3120
3023 3023 3023 3025 3026 3026 3028 3031 3033 3032 3031 3031 3032 3033 3034 3036 3038 3041 3043 3044 3047 3049 3051 3053 3054 3056 3057 3057 3057 3060 3063 3063 3063 3064 3066 3067 3068 3069 3070 3070 3072 3073 3074 3076 3077 3079 3081 3084 3087 3089 3091 3093 3095 3097 3099 3100 3103 3104 3105 3106 3107 3108 3108 3109 3110 3111 3112 3113 3114 3115 3115 3115 3115 3115 3116 3116 3117 3117 3118 3118 3118 3119 3119 3120 3120 3120
3023 3023 3023 3024 3025 3025 3026 3029 3031 3031 3031 3032 3033 3032 3033 3034 3035 3037 3040 3042 3044 3046 3049 3051 3053 3054 3056 3056 3056 3059 3060 3061 3063 3064 3065 3066 3067 3068 3068 3069 3071 3072 3073 3074 3075 3077 3079 3082 3085 3087 3088 3090 3092 3095 3097 3098 3101 3102 3103 3104 3105 3105 3106 3107 3108 3109 3110 3111 3112 3113 3113 3113 3114 3114 3115 3115 3116 3116 3117 3118 3118 3119 3120 3120 3120 3120
3022 3022 3023 3023 3024 3024 3025 3027 3029 3031 3031 3032 3032 3032 3033 3034 3035 3036 3037 3039 3042 3044 3046 3048 3050 3052 3054 3054 3055 3056 3058 3059 3062 3062 3062 3064 3065 3066 3066 3067 3069 3070 3071 3072 3074 3075 3078 3080 3083 3085 3087 3088 3091 3093 3095 3097 3099 3100 3101 3102 3102 3103 3104 3105 3106 3108 3109 3110 3111 3111 3111 3112 3113 3113 3114 3114 3115 3116 3117 3117 3118 3119 3120 3120 3120 3120
3021 3022 3022 3023 3023 3024 3025 3026 3028 3030 3030 3029 3030 3031 3032 3033 3035 3037 3037 3038 3040 3042 3044 3046 3048 3050 3052 3052 3052 3054 3056 3057 3059 3059 3060 3061 3062 3063 3064 3065 3066 3068 3069 3070 3072 3073 3075 3078 3081 3083 3085 3087 3089 3091 3093 3095 3097 3098 3099 3100 3100 3101 3102 3104 3105 3107 3108 3109 3109 3110 3110 3111 3112 3112 3113 3114 3115 3115 3116 3117 3118 3119 3119 3119 3119 3119
3021 3021 3022 3023 3023 3024 3025 3025 3025 3027 3027 3026 3028 3030 3031 3032 3034 3036 3038 3037 3038 3041 3043 3044 3046 3049 3050 3048 3049 3052 3054 3055 3056 3057 3058 3059 3060 3061 3062 3063 3065 3066 3067 3068 3070 3071 3074 3076 3079 3081 3083 3085 3087 3089 3092 3093 3095 3096 3097 3098 3098 3099 3101 3103 3104 3105 3107 3107 3108 3109 3109 3110 3111 3112 3113 3113 3114 3115 3116 3117 3118 3118 3119 3118 3118 3118
3020 3021 3022 3023 3023 3023 3025 3025 3024 3024 3025 3026 3027 3029 3030 3031 3033 3035 3036 3036 3037 3039 3040 3041 3044 3048 3047 3045 3046 3051 3053 3053 3054 3055 3056 3058 3059 3059 3060 3061 3063 3064 3066 3067 3068 3070 3073 3075 3077 3079 3082 3084 3086 3088 3090 3091 3093 3094 3095 3095 3096 3098 3100 3101 3103 3104 3105 3106 3107 3108 3108 3109 3110 3111 3112 3113 3114 3115 3116 3117 3117 3118 3118 3118 3118 3117
3018 3020 3022 3022 3022 3023 3024 3024 3023 3023 3025 3026 3028 3029 3030 3031 3032 3034 3034 3034 3035 3036 3037 3039 3042 3045 3044 3043 3046 3050 3051 3051 3053 3055 3055 3056 3057 3058 3059 3060 3061 3063 3064 3065 3066 3068 3071 3073 3075 3078 3081 3083 3085 3087 3088 3089 3091 3092 3093 3093 3095 3097 3098 3100 3101 3103 3104 3105 3105 3106 3107 3108 3109 3110 3111 3113 3114 3115 3115 3116 3117 3117 3117 3117 3117 3117
3017 3019 3021 3022 3022 3022 3023 3024 3023 3023 3024 3026 3028 3029 3029 3031 3032 3032 3032 3032 3033 3034 3036 3038 3041 3043 3042 3043 3046 3048 3048 3049 3052 3054 3054 3054 3055 3056 3057 3059 3060 3061 3062 3063 3065 3067 3068 3070 3073 3076 3079 3080 3082 3084 3086 3087 3089 3090 3090 3092 3093 3095 3097 3099 3100 3102 3103 3103 3104 3105 3106 3108 3109 3110 3111 3112 3113 3114 3115 3115 3116 3116 3116 3116 3116 3116
3017 3018 3019 3020 3021 3022 3022 3023 3023 3022 3022 3025 3027 3028 3029 3030 3031 3031 3031 3031 3032 3033 3035 3038 3040 3041 3040 3041 3043 3045 3046 3048 3050 3051 3052 3053 3053 3054 3055 3056 3058 3059 3061 3062 3063 3065 3067 3069 3071 3073 3075 3077 3080 3082 3083 3085 3087 3088 3089 3090 3092 3094 3096 3098 3099 3100 3101 3102 3103 3104 3105 3107 3108 3109 3110 3111 3112 3113 3114 3114 3115 3115 3115 3115 3115 3115
3016 3017 3018 3019 3021 3021 3020 3020 3021 3021 3022 3025 3026 3027 3028 3029 3030 3030 3030 3031 3031 3032 3033 3036 3037 3038 3038 3039 3041 3043 3045 3047 3048 3049 3050 3051 3051 3052 3053 3054 3056 3058 3060 3061 3062 3063 3065 3068 3070 3071 3073 3076 3078 3080 3081 3083 3085 3086 3087 3089 3091 3093 3094 3096 3097 3099 3100 3101 3102 3103 3104 3105 3107 3108 3109 3110 3111 3112 3113 3113 3113 3114 3114 3114 3114 3113
3015 3016 3017 3017 3018 3019 3018 3019 3020 3021 3022 3024 3025 3026 3027 3029 3030 3029 3029 3030 3032 3033 3034 3035 3036 3037 3038 3040 3042 3044 3045 3045 3046 3047 3049 3049 3049 3051 3052 3053 3054 3056 3058 3059 3060 3062 3064 3066 3068 3070 3072 3074 3076 3078 3080 3082 3083 3084 3086 3087 3090 3091 3093 3094 3096 3097 3098 3099 3100 3101 3103 3104 3106 3107 3108 3109 3110 3111 3112 3112 3112 3113 3113 3113 3112 3112
3014 3015 3016 3017 3017 3018 3018 3019 3020 3021 3022 3023 3024 3026 3027 3028 3030 3029 3029 3030 3032 3033 3034 3036 3037 3038 3039 3040 3041 3042 3043 3044 3044 3045 3046 3048 3049 3049 3051 3052 3053 3055 3056 3057 3058 3061 3063 3064 3066 3069 3071 3073 3074 3076 3078 3080 3081 3083 3084 3086 3088 3090 3091 3093 3094 3095 3096 3097 3099 3100 3101 3103 3105 3106 3107 3108 3109 3110 3111 3111 3111 3112 3112 3112 3112 3112
3014 3015 3016 3016 3017 3018 3019 3020 3020 3021 3022 3023 3024 3025 3026 3027 3029 3029 3029 3030 3031 3032 3034 3036 3036 3037 3038 3039 3040 3041 3041 3042 3043 3043 3044 3046 3048 3048 3049 3050 3052 3053 3054 3055 3057 3059 3060 3062 3065 3067 3069 3070 3072 3074 3076 3078 3080 3081 3083 3085 3086 3088 3089 3091 3092 3093 3094 3096 3097 3099 3100 3102 3104 3105 3106 3107 3108 3109 3110 3110 3110 3110 3111 3111 3111 3112
3013 3014 3015 3016 3017 3019 3020 3020 3020 3021 3022 3022 3024 3024 3025 3026 3027 3028 3029 3030 3031 3031 3033 3034 3035 3036 3036 3037 3038 3039 3040 3040 3041 3042 3043 3044 3045 3046 3047 3048 3050 3052 3052 3053 3055 3057 3058 3060 3063 3065 3066 3068 3071 3073 3074 3076 3078 3080 3082 3083 3084 3086 3088 3089 3090 3092 3093 3095 3096 3097 3099 3101 3103 3104 3105 3106 3107 3108 3109 3109 3109 3110 3110 3111 3111 3112
3013 3014 3015 3016 3017 3018 3019 3018 3018 3019 3020 3022 3022 3023 3023 3025 3026 3027 3028 3029 3030 3031 3032 3033 3034 3035 3035 3037 3037 3038 3038 3039 3040 3041 3042 3042 3043 3044 3045 3047 3048 3049 3050 3052 3054 3055 3057 3059 3061 3063 3065 3067 3069 3071 3073 3075 3077 3079 3080 3081 3083 3085 3086 3087 3088 3090 3092 3093 3095 3097 3098 3100 3102 3103 3104 3105 3106 3107 3108 3108 3109 3109 3110 3110 3111 3111
3013 3014 3014 3015 3016 3016 3017 3017 3017 3018 3019 3020 3021 3021 3022 3024 3025 3026 3027 3027 3028 3030 3030 3031 3033 3034 3034 3036 3037 3037 3037 3038 3039 3040 3041 3041 3041 3042 3044 3045 3046 3047 3048 3050 3051 3053 3055 3058 3059 3061 3063 3065 3067 3069 3071 3073 3075 3077 3078 3079 3081 3083 3084 3085 3087 3088 3090 3092 3094 3096 3098 3099 3101 3102 3103 3104 3105 3106 3106 3107 3108 3109 3109 3110 3110 3111
3013 3014 3014 3015 3015 3015 3015 3016 3016 3017 3018 3019 3020 3020 3021 3023 3024 3025 3026 3026 3027 3028 3029 3030 3031 3032 3033 3034 3036 3036 3036 3036 3037 3038 3039 3039 3039 3040 3042 3043 3044 3045 3046 3047 3048 3050 3053 3055 3057 3059 3061 3063 3065 3067 3069 3072 3074 3075 3075 3077 3079 3081 3082 3083 3085 3086 3088 3090 3093 3095 3097 3098 3100 3101 3102 3103 3104 3105 3105 3106 3107 3108 3109 3109 3110 3110